Location: Newark
(36.0797°N, 3.9744°E)
Time: 11:18:02
(UTC+00:00)

Vanguard 2 Rocket - Pass Details

Date: 14 December 2019
Orbit: 554 x 3326 km, 32.9° (Epoch: 21 January)

Event Time Altitude Azimuth Distance (km) Brightness Sun altitude
Rises 16:05:27 0° 240° (WSW) 7,276 14.9 3.5°
Reaches altitude 10° 16:10:40 10° 237° (WSW) 6,127 13.8 2.6°
Maximum altitude 16:28:41 62° 163° (SSE) 2,632 9.4 -0.5°
Drops below altitude 10° 16:39:39 10° 86° (E) 3,927 9.6 -2.5°
Enters shadow 16:42:05 - 83° (E) 4,574 9.9 -2.9°
Sets 16:42:14 0° 83° (E) 4,616 - -2.9°
